Flight Track Log - Related Links

Times and Time Zones

All times are in EST time to prevent confusion due to time zone crossing. See the HTL909 flight status page for this flight to view local times or setup timezone preferences in your user account.

Time Position Orientation Groundspeed Altitude Reporting Facility
EST Latitude Longitude Course Direction KTS MPH feet Rate Location/Type
Tue 02:51:29 PM 30.2812 -97.6412 147° Southeast  Level FlightAware Approximate
Tue 02:52:34 PM 30.1719 -97.5600 28° Northeast 277 319 9,300  Level Houston Center
Tue 02:53:34 PM 30.2469 -97.5139 30° Northeast 284 327 11,600 2,150 Climbing Houston Center
Tue 02:54:34 PM 30.3372 -97.4542 30° Northeast 320 368 13,600 1,950 Climbing Houston Center
Tue 02:55:34 PM 30.4272 -97.3944 29° Northeast 353 406 15,500 1,900 Climbing Houston Center
Tue 02:56:34 PM 30.5194 -97.3344 35° Northeast 367 422 17,400 1,750 Climbing Houston Center
Tue 02:57:34 PM 30.6081 -97.2622 48° Northeast 381 438 19,000 1,750 Climbing Houston Center
Tue 02:58:34 PM 30.6831 -97.1653 45° Northeast 381 438 20,900 1,500 Climbing Houston Center
Tue 02:59:34 PM 30.7639 -97.0706 46° Northeast 401 461 22,000 550 Climbing Houston Center
Tue 03:00:34 PM 30.8494 -96.9664 45° Northeast 424 488 22,000  Level Houston Center
Tue 03:01:34 PM 30.9369 -96.8644 46° Northeast 440 506 22,000  Level Houston Center
Tue 03:03:08 PM 31.0631 -96.7100 46° Northeast 436 502 22,000  Level Fort Worth Center
Tue 03:04:08 PM 31.1522 -96.6025 46° Northeast 436 502 22,000  Level Fort Worth Center
Tue 03:05:08 PM 31.2372 -96.4997 24° Northeast 431 496 22,000  Level Fort Worth Center
Tue 03:06:08 PM 31.3453 -96.4428 North 426 490 22,000  Level Fort Worth Center
Tue 03:07:08 PM 31.4600 -96.4342 North 404 465 22,000  Level Fort Worth Center
Tue 03:08:08 PM 31.5769 -96.4281 North 417 480 22,000 -150 Level Fort Worth Center
Tue 03:09:08 PM 31.6939 -96.4197 North 417 480 21,700 -650 Descending Fort Worth Center
Tue 03:10:08 PM 31.8064 -96.4136 North 417 480 20,700 -1,400 Descending Fort Worth Center
Tue 03:11:08 PM 31.9233 -96.4050 North 417 480 18,900 -1,850 Descending Fort Worth Center
Tue 03:12:08 PM 32.0319 -96.3989 North 400 460 17,000 -2,050 Descending Fort Worth Center
Tue 03:13:08 PM 32.1467 -96.3903 77° East 387 445 14,800 -2,344 Descending Fort Worth Center
Tue 03:13:12 PM 32.1483 -96.3817 North 376 433 14,500 -2,750 Descending FAA TRACON SMA TRACON (SMA)
Tue 03:13:32 PM 32.1881 -96.3786 360° North 373 429 13,700 -2,100 Descending FAA TRACON SMA TRACON (SMA)
Tue 03:13:52 PM 32.2175 -96.3786 North 363 418 13,100 -2,049 Descending FAA TRACON SMA TRACON (SMA)
Tue 03:14:13 PM 32.2536 -96.3764 North 347 399 12,300 -1,950 Descending FAA TRACON SMA TRACON (SMA)
Tue 03:14:32 PM 32.2817 -96.3742 North 337 388 11,800 -1,538 Descending FAA TRACON SMA TRACON (SMA)
Tue 03:14:52 PM 32.3089 -96.3725 North 325 374 11,300 -1,500 Descending FAA TRACON SMA TRACON (SMA)
Tue 03:15:12 PM 32.3339 -96.3719 North 312 359 10,800 -1,800 Descending FAA TRACON SMA TRACON (SMA)
Tue 03:15:32 PM 32.3664 -96.3700 North 304 350 10,100 -1,950 Descending FAA TRACON SMA TRACON (SMA)
Tue 03:15:52 PM 32.3925 -96.3681 North 301 346 9,500 -1,650 Descending FAA TRACON SMA TRACON (SMA)
Tue 03:16:12 PM 32.4247 -96.3658 351° North 299 344 9,000 -878 Descending FAA TRACON SMA TRACON (SMA)
Tue 03:16:33 PM 32.4483 -96.3703 337° Northwest 295 339 8,900 -150 Descending FAA TRACON SMA TRACON (SMA)
Tue 03:16:52 PM 32.4703 -96.3814 332° Northwest 286 329 8,900  Level FAA TRACON SMA TRACON (SMA)
Tue 03:17:12 PM 32.4914 -96.3947 333° Northwest 280 322 8,900 -450 Level FAA TRACON SMA TRACON (SMA)
Tue 03:17:32 PM 32.5183 -96.4111 331° Northwest 280 322 8,600 -1,350 Descending FAA TRACON SMA TRACON (SMA)
Tue 03:17:52 PM 32.5386 -96.4244 333° Northwest 277 319 8,000 -2,100 Descending FAA TRACON SMA TRACON (SMA)
Tue 03:18:12 PM 32.5653 -96.4406 331° Northwest 276 318 7,200 -2,049 Descending FAA TRACON SMA TRACON (SMA)
Tue 03:18:33 PM 32.5853 -96.4536 333° Northwest 273 314 6,600 -1,756 Descending FAA TRACON SMA TRACON (SMA)
Tue 03:18:53 PM 32.6064 -96.4661 332° Northwest 273 314 6,000 -2,154 Descending FAA TRACON SMA TRACON (SMA)
Tue 03:19:12 PM 32.6317 -96.4822 332° Northwest 271 312 5,200 -1,538 Descending FAA TRACON SMA TRACON (SMA)
Tue 03:19:32 PM 32.6522 -96.4950 333° Northwest 270 311 5,000 -450 Descending FAA TRACON SMA TRACON (SMA)
Tue 03:19:52 PM 32.6722 -96.5072 321° Northwest 268 308 4,900 -150 Descending FAA TRACON SMA TRACON (SMA)
Tue 03:20:12 PM 32.6936 -96.5281 317° Northwest 261 300 4,900  Level FAA TRACON SMA TRACON (SMA)
Tue 03:20:32 PM 32.7100 -96.5464 318° Northwest 261 300 4,900  Level FAA TRACON SMA TRACON (SMA)
Tue 03:20:52 PM 32.7264 -96.5639 319° Northwest 261 300 4,900  Level FAA TRACON SMA TRACON (SMA)
Tue 03:21:12 PM 32.7472 -96.5856 318° Northwest 259 298 4,900  Level FAA TRACON SMA TRACON (SMA)
Tue 03:21:32 PM 32.7639 -96.6033 320° Northwest 259 298 4,900  Level FAA TRACON SMA TRACON (SMA)
Tue 03:21:52 PM 32.7808 -96.6203 318° Northwest 261 300 4,900  Level FAA TRACON SMA TRACON (SMA)
Tue 03:22:12 PM 32.8014 -96.6419 320° Northwest 259 298 4,900  Level FAA TRACON SMA TRACON (SMA)
Tue 03:22:32 PM 32.8186 -96.6589 319° Northwest 259 298 4,900  Level FAA TRACON SMA TRACON (SMA)
Tue 03:22:52 PM 32.8353 -96.6761 319° Northwest 259 298 4,900 -300 Level FAA TRACON SMA TRACON (SMA)
Tue 03:23:12 PM 32.8561 -96.6978 319° Northwest 259 298 4,700 -750 Descending FAA TRACON SMA TRACON (SMA)
Tue 03:23:32 PM 32.8728 -96.7150 319° Northwest 259 298 4,400 -878 Descending FAA TRACON SMA TRACON (SMA)
Tue 03:23:53 PM 32.8897 -96.7325 318° Northwest 260 299 4,100 -750 Descending FAA TRACON SMA TRACON (SMA)
Tue 03:24:12 PM 32.9100 -96.7544 319° Northwest 258 297 3,900 -308 Descending FAA TRACON SMA TRACON (SMA)
Tue 03:24:32 PM 32.9264 -96.7717 300° West 258 297 3,900  Level FAA TRACON SMA TRACON (SMA)
Tue 03:24:52 PM 32.9364 -96.7925 289° West 248 285 3,900  Level FAA TRACON SMA TRACON (SMA)
Tue 03:25:12 PM 32.9436 -96.8169 289° West 209 241 3,900 146 Level FAA TRACON SMA TRACON (SMA)
Tue 03:25:33 PM 32.9486 -96.8344 289° West 188 216 4,000  Climbing FAA TRACON SMA TRACON (SMA)
Tue 03:25:52 PM 32.9536 -96.8514 290° West 175 201 3,900 -1,077 Descending FAA TRACON SMA TRACON (SMA)
Tue 03:26:12 PM 32.9600 -96.8722 289° West 173 199 3,300 -1,350 Descending FAA TRACON SMA TRACON (SMA)
Tue 03:26:32 PM 32.9647 -96.8889 241° Southwest 175 201 3,000 -600 Descending FAA TRACON SMA TRACON (SMA)
Tue 03:26:52 PM 32.9586 -96.9022 203° Southwest 177 204 2,900 -750 Descending FAA TRACON SMA TRACON (SMA)
Tue 03:27:12 PM 32.9425 -96.9103 200° South 165 190 2,500 -1,024 Descending FAA TRACON SMA TRACON (SMA)
Tue 03:27:33 PM 32.9294 -96.9158 194° South 161 185 2,200 -750 Descending FAA TRACON SMA TRACON (SMA)
Tue 03:27:52 PM 32.9158 -96.9200 166° South 162 186 2,000 -923 Descending FAA TRACON SMA TRACON (SMA)
Tue 03:28:12 PM 32.8997 -96.9153 142° Southeast 163 188 1,600 -878 Descending FAA TRACON SMA TRACON (SMA)
Tue 03:28:33 PM 32.8897 -96.9061 135° Southeast 154 177 1,400 -450 Descending FAA TRACON SMA TRACON (SMA)
Tue 03:28:52 PM 32.8822 -96.8972 138° Southeast 131 151 1,300 -615 Descending FAA TRACON SMA TRACON (SMA)
Tue 03:29:12 PM 32.8728 -96.8869 136° Southeast 119 137 1,000 -600 Descending FAA TRACON SMA TRACON (SMA)
Tue 03:29:32 PM 32.8653 -96.8783 134° Southeast 119 137 900 -450 Descending FAA TRACON SMA TRACON (SMA)
Tue 03:29:52 PM 32.8586 -96.8700 136° Southeast 116 133 700 -450 Descending FAA TRACON SMA TRACON (SMA)
Tue 03:30:12 PM 32.8533 -96.8639 136° Southeast 117 135 600 -300 Descending FAA TRACON SMA TRACON (SMA)

Login

Don't have an account? Register now (free) for customized features, flight alerts, and more!